Погода в Нижних Пенах

Россия / Белгородская область     51°00′18″N   35°57′01″E
темп.,
°C
ветер,
м/с
пор.,
м/с
влажн.,
%
обл.,
%
осадки,
мм/ч
давл.,
гПа
погр.,
м
18 апреля, вс
вс1800:00+5ююз369453 0.4 1018237
03:00+4ююз3695100 0.6 1018166
06:00+3ююз2493100 0.0 101890
09:00+5ююз4586100 0.5 1018659
12:00+8ю3574100 1.4 1018984
15:00+6юз3484100 2.6 1018747
18:00+6юв1290100 2.8 1018452
21:00+5ссв3395100 7.4 1018196
19 апреля, пн
пн1900:00+4ссв2293100 1.8 1018157
03:00+5с239270 1.8 1017190
06:00+4ссв119492 0.0 101735
09:00+6ссз228299 0.0 1017404
12:00+8сз216997 0.1 1017673
15:00+10ссз3258100 0.2 10161382
18:00+10с2265100 0.1 1016384
21:00+8с007140 0.1 101610
20 апреля, вт
вт2000:00+5в22795 0.0 101512
03:00+4всв328311 0.0 101427
06:00+5св378193 0.0 1013158
09:00+11в61176100 0.1 1011543
12:00+12в81171100 0.1 10081145
15:00+9св91493100 5.5 10031062
18:00+7св101793100 10.6 9971008
21:00+10ююв91590100 14.8 993715
21 апреля, ср
ср2100:00+9ююв101591100 0.8 9931010
03:00+4юз71196100 1.4 997847
06:00+4юз71396100 1.2 1001928
09:00+6зюз81393100 1.4 10051203
12:00+8зюз8128282 0.1 10101120
15:00+9зюз7977100 0.3 10131034
18:00+8зюз4777100 0.1 1015870
21:00+6ююз3784100 0.2 1018296
22 апреля, чт
чт2200:00+7юз3575100 0.0 1019105
03:00+6юз3670100 0.0 1020128
06:00+6ю3671100 0.0 1021125
09:00+9ю456094 0.0 1023491
12:00+13ююз334868 0.0 10231786
15:00+13ю2347100 0.0 10231525
18:00+13ю335190 0.0 1024174
21:00+11ююв3358100 0.0 102556